NOAA 16 DEB, 42348

Orbit data source: Space-Track

NOAA 16 DEB, 42348 is space debris in SSO originally from a launch on Thu, 21 Sep 2000 UTC launched from the Air Force Western Test Range (AFWTR). Debris objects in space refer to the collection of defunct objects orbiting the Earth. Examples of debris include non-operational satellites, rocket bodies, and fragments generated from explosions, collisions, or faulty payload assembly.

Loading next visibility...
Identifier
42348, 2000-055QQ
Orbit
SSO
Country
Flag of USUS
Related business
Manufacturer
Unknown
Mission
Spacecraft
Bus & Motor
Unknown
Mass
Unknown
Launch date (UTC)
2000-09-21 (26 years ago)
Launch vehicle
Unknown
Launch site
Air Force Western Test Range (AFWTR)
Object type
Payload
Rocket body
Debris
Shape & HBR
Unknown shape, 0.1 m
Radar Cross Section
Small (<0.1 m²)

Expand to show TLE details & history
Last TLE update: 5 days ago

TLE from 5 days ago
0 NOAA 16 DEB
1 42348U 00055QQ  26123.20799640  .00003500  00000-0  17658-2 0  9999
2 42348  98.8113 115.9865 0058714  52.4855 308.1635 14.16012866522912
Epoch: 2026-05-03T04:59Z
TLE epoch observation values (Epoch: 2026-05-03T04:59:30.888Z)
Latitude
-0.0001°
Longitude
179.99297°
Altitude
815.741 km
Speed
7.459 km/s
True Right ascension
07h 43m 56s
True Declination
0° 00' 00"
Sunlit
Object was in daylight at epoch
Visualization orbit readout
Latitude
Unknown
Longitude
Unknown
Altitude
Unknown
Speed
Unknown
Apparent Right ascension
Unknown
Apparent Declination
Unknown
Sunlit
N/A
Visualization observer readout
Local Sidereal Time
01:05:42
Azimuth
Unknown
Elevation
Unknown
Doppler factor
Unknown
Orbital elements
Apogee altitude
878.395 km
Perigee altitude
793.68 km
Semi-major axis
7,214.174 km
Eccentricity
0.00587
Inclination
98.8113°
RAAN
115.9865°
Arg. of periapsis
52.4855°
True anomaly
307.6321°
Mean anomaly
308.1635°
Eccentric anomaly
307.89804°
Mean motion
3.54212 °/min
Orbital period
101.63 mins
BSTAR
0.0017658
Loading maneuver chart data...
Computing Atmospheric mass density...

Documentation

Showing up to 5 results
|